TimeEST,TemperatureF,Dew PointF,Humidity,Sea Level PressureIn,VisibilityMPH,Wind Direction,Wind SpeedMPH,Gust SpeedMPH,PrecipitationIn,Events,Conditions,WindDirDegrees,DateUTC
12:54 AM,39.0,37.0,93,29.95,3.0,North,3.5,-,N/A,,Overcast,360,2012-12-25 05:54:00
1:54 AM,39.0,37.0,93,29.95,5.0,Calm,Calm,-,N/A,,Scattered Clouds,0,2012-12-25 06:54:00
2:54 AM,39.0,37.0,93,29.96,8.0,NNW,3.5,-,N/A,,Scattered Clouds,340,2012-12-25 07:54:00
3:54 AM,39.0,37.0,93,29.97,10.0,NNW,4.6,-,N/A,,Scattered Clouds,330,2012-12-25 08:54:00
4:54 AM,37.9,35.1,89,29.99,10.0,WNW,3.5,-,N/A,,Scattered Clouds,300,2012-12-25 09:54:00
5:54 AM,37.9,35.1,89,30.02,9.0,NW,3.5,-,N/A,,Mostly Cloudy,320,2012-12-25 10:54:00
6:54 AM,37.9,36.0,93,30.04,10.0,Calm,Calm,-,N/A,,Scattered Clouds,0,2012-12-25 11:54:00
7:54 AM,37.0,35.1,93,30.07,7.0,Calm,Calm,-,N/A,,Scattered Clouds,0,2012-12-25 12:54:00
8:54 AM,41.0,37.9,89,30.09,8.0,Calm,Calm,-,N/A,,Mostly Cloudy,0,2012-12-25 13:54:00
9:54 AM,46.0,41.0,83,30.11,8.0,Calm,Calm,-,N/A,,Scattered Clouds,0,2012-12-25 14:54:00
10:54 AM,48.9,41.0,74,30.11,10.0,Calm,Calm,-,N/A,,Scattered Clouds,0,2012-12-25 15:54:00
11:54 AM,51.1,37.9,61,30.09,10.0,Calm,Calm,-,N/A,,Partly Cloudy,0,2012-12-25 16:54:00
12:54 PM,52.0,37.0,57,30.06,10.0,Calm,Calm,-,N/A,,Scattered Clouds,0,2012-12-25 17:54:00
1:54 PM,53.1,36.0,52,30.07,10.0,Calm,Calm,-,N/A,,Partly Cloudy,0,2012-12-25 18:54:00
2:54 PM,52.0,35.1,53,30.07,10.0,South,3.5,-,N/A,,Partly Cloudy,190,2012-12-25 19:54:00
3:54 PM,51.1,36.0,56,30.09,10.0,ESE,5.8,-,N/A,,Partly Cloudy,120,2012-12-25 20:54:00
4:54 PM,50.0,37.0,61,30.09,10.0,ESE,6.9,-,N/A,,Partly Cloudy,110,2012-12-25 21:54:00
5:54 PM,48.0,37.0,66,30.07,10.0,ESE,8.1,-,N/A,,Partly Cloudy,110,2012-12-25 22:54:00
6:54 PM,46.0,41.0,83,30.12,10.0,SE,10.4,-,N/A,,Mostly Cloudy,130,2012-12-25 23:54:00
7:51 PM,42.8,39.2,87,30.14,10.0,SE,8.1,-,N/A,,Scattered Clouds,130,2012-12-26 00:51:00
7:54 PM,43.0,39.0,86,30.16,10.0,SE,5.8,-,N/A,,Mostly Cloudy,140,2012-12-26 00:54:00
8:54 PM,41.0,37.0,86,30.14,10.0,SE,10.4,-,N/A,,Scattered Clouds,130,2012-12-26 01:54:00
9:15 PM,41.0,37.4,87,30.12,10.0,SE,5.8,-,N/A,,Mostly Cloudy,140,2012-12-26 02:15:00
9:37 PM,41.0,37.4,87,30.13,10.0,SSE,8.1,-,N/A,,Overcast,160,2012-12-26 02:37:00
9:54 PM,41.0,37.0,86,30.16,10.0,SE,8.1,-,N/A,,Overcast,140,2012-12-26 02:54:00
10:54 PM,42.1,37.0,82,30.16,10.0,SE,3.5,-,N/A,,Overcast,130,2012-12-26 03:54:00
11:54 PM,42.1,36.0,79,30.15,10.0,ESE,8.1,-,N/A,,Overcast,120,2012-12-26 04:54:00